When you browse on this site, cookies collect data to enhance your experience and personalize the content and advertising you see.
Visit our Privacy Policy to learn more. By continuing to use the site, you agree to this use of cookies and data.
  • în România
  • Lista ţărilor
  • Pe 7 zile
  • Temperatura apei
  • Meteo pe hartă
  • Widget-uri
  • user-avatar
    Intrare

    Meteo pe oră la Pamporovo

    Astăzi, 21 Octombrie, Luni

    Timp Temperatura Precipitaţii Vânt Presiune Umiditate
    00:00 +8°C° 0 mm 1 m/s 629 mmHg 74%
    01:00 +8°C° 0 mm 1 m/s 629 mmHg 74%
    02:00 +8°C° 0 mm 1 m/s 629 mmHg 75%
    03:00 +8°C° 0 mm 1 m/s 629 mmHg 75%
    04:00 +8°C° 0 mm 1 m/s 629 mmHg 75%
    05:00 +8°C° 0 mm 1 m/s 629 mmHg 75%
    06:00 +9°C° 0 mm 1 m/s 629 mmHg 71%
    07:00 +10°C° 0 mm 1 m/s 630 mmHg 67%
    08:00 +11°C° 0 mm 1 m/s 630 mmHg 64%
    09:00 +13°C° 0 mm 1 m/s 631 mmHg 56%
    10:00 +15°C° 0 mm 1 m/s 632 mmHg 48%
    11:00 +18°C° 0 mm 1 m/s 633 mmHg 40%
    12:00 +18°C° 0 mm 2 m/s 633 mmHg 40%
    13:00 +18°C° 0 mm 2 m/s 633 mmHg 39%
    14:00 +18°C° 0 mm 2 m/s 633 mmHg 38%
    15:00 +16°C° 0 mm 2 m/s 632 mmHg 44%
    16:00 +15°C° 0 mm 1 m/s 631 mmHg 49%
    17:00 +13°C° 0 mm 1 m/s 630 mmHg 55%
    18:00 +12°C° 0 mm 1 m/s 630 mmHg 58%
    19:00 +11°C° 0 mm 1 m/s 629 mmHg 61%
    20:00 +9°C° 0 mm 1 m/s 629 mmHg 64%
    21:00 +9°C° 0 mm 1 m/s 629 mmHg 65%
    22:00 +9°C° 0 mm 1 m/s 629 mmHg 66%
    23:00 +8°C° 0 mm 1 m/s 629 mmHg 67%

    Mâine, 22 Octombrie, Marţi

    Timp Temperatura Precipitaţii Vânt Presiune Umiditate
    00:00 +8°C° 0 mm 1 m/s 629 mmHg 70%
    01:00 +8°C° 0 mm 1 m/s 629 mmHg 73%
    02:00 +8°C° 0 mm 1 m/s 629 mmHg 76%
    03:00 +7°C° 0 mm 1 m/s 629 mmHg 78%
    04:00 +7°C° 0 mm 1 m/s 629 mmHg 80%
    05:00 +7°C° 0 mm 1 m/s 628 mmHg 81%
    06:00 +8°C° 0 mm 1 m/s 629 mmHg 77%
    07:00 +9°C° 0 mm 1 m/s 629 mmHg 73%
    08:00 +10°C° 0 mm 1 m/s 630 mmHg 69%
    09:00 +12°C° 0 mm 2 m/s 631 mmHg 59%
    10:00 +14°C° 0 mm 2 m/s 632 mmHg 50%
    11:00 +16°C° 0 mm 2 m/s 633 mmHg 40%
    12:00 +16°C° 0 mm 2 m/s 632 mmHg 37%
    13:00 +16°C° 0 mm 3 m/s 632 mmHg 35%
    14:00 +17°C° 0 mm 3 m/s 632 mmHg 33%
    15:00 +15°C° 0 mm 2 m/s 631 mmHg 37%
    16:00 +14°C° 0 mm 2 m/s 631 mmHg 42%
    17:00 +12°C° 0 mm 1 m/s 630 mmHg 47%
    18:00 +11°C° 0 mm 1 m/s 630 mmHg 50%
    19:00 +9°C° 0 mm 1 m/s 629 mmHg 53%
    20:00 +8°C° 0 mm 1 m/s 629 mmHg 56%
    21:00 +8°C° 0 mm 1 m/s 629 mmHg 59%
    22:00 +7°C° 0 mm 1 m/s 629 mmHg 61%
    23:00 +7°C° 0 mm 1 m/s 629 mmHg 64%

    Poimâine, 23 Octombrie, Miercuri

    Timp Temperatura Precipitaţii Vânt Presiune Umiditate
    00:00 +7°C° 0 mm 1 m/s 629 mmHg 65%
    01:00 +6°C° 0 mm 1 m/s 628 mmHg 67%
    02:00 +6°C° 0 mm 1 m/s 628 mmHg 69%
    03:00 +6°C° 0 mm 1 m/s 628 mmHg 69%
    04:00 +6°C° 0 mm 1 m/s 628 mmHg 68%
    05:00 +6°C° 0 mm 1 m/s 628 mmHg 67%
    06:00 +7°C° 0 mm 1 m/s 628 mmHg 61%
    07:00 +8°C° 0 mm 1 m/s 629 mmHg 54%
    08:00 +9°C° 0 mm 1 m/s 629 mmHg 48%
    09:00 +11°C° 0 mm 1 m/s 630 mmHg 39%
    10:00 +14°C° 0 mm 1 m/s 631 mmHg 31%
    11:00 +18°C° 0 mm 1 m/s 632 mmHg 22%
    12:00 +17°C° 0 mm 2 m/s 632 mmHg 23%
    13:00 +17°C° 0 mm 2 m/s 632 mmHg 23%
    14:00 +17°C° 0 mm 2 m/s 631 mmHg 23%
    15:00 +15°C° 0 mm 2 m/s 630 mmHg 31%
    16:00 +14°C° 0 mm 1 m/s 630 mmHg 38%
    17:00 +12°C° 0 mm 1 m/s 629 mmHg 45%
    18:00 +10°C° 0 mm 1 m/s 628 mmHg 48%
    19:00 +9°C° 0 mm 1 m/s 628 mmHg 51%
    20:00 +8°C° 0 mm 1 m/s 627 mmHg 54%
    21:00 +7°C° 0 mm 1 m/s 627 mmHg 53%
    22:00 +7°C° 0 mm 1 m/s 627 mmHg 52%
    23:00 +7°C° 0 mm 1 m/s 627 mmHg 51%

    24 Octombrie, Joi

    Timp Temperatura Precipitaţii Vânt Presiune Umiditate
    00:00 +7°C° 0 mm 1 m/s 627 mmHg 52%
    01:00 +6°C° 0 mm 1 m/s 627 mmHg 52%
    02:00 +6°C° 0 mm 1 m/s 627 mmHg 52%
    03:00 +6°C° 0 mm 1 m/s 626 mmHg 52%
    04:00 +6°C° 0 mm 1 m/s 626 mmHg 53%
    05:00 +6°C° 0 mm 1 m/s 626 mmHg 53%
    06:00 +7°C° 0 mm 1 m/s 626 mmHg 52%
    07:00 +8°C° 0 mm 1 m/s 627 mmHg 50%
    08:00 +9°C° 0 mm 1 m/s 627 mmHg 48%
    09:00 +11°C° 0 mm 1 m/s 628 mmHg 42%
    10:00 +14°C° 0 mm 1 m/s 629 mmHg 36%
    11:00 +16°C° 0 mm 1 m/s 630 mmHg 30%
    12:00 +16°C° 0 mm 1 m/s 630 mmHg 30%
    13:00 +18°C° 0 mm 1 m/s 630 mmHg 30%
    14:00 +17°C° 0 mm 2 m/s 629 mmHg 29%
    15:00 +15°C° 0 mm 1 m/s 628 mmHg 36%
    16:00 +13°C° 0 mm 1 m/s 627 mmHg 43%
    17:00 +11°C° 0 mm 1 m/s 626 mmHg 50%
    18:00 +10°C° 0 mm 1 m/s 626 mmHg 53%
    19:00 +9°C° 0 mm 1 m/s 626 mmHg 57%
    20:00 +7°C° 0 mm 1 m/s 625 mmHg 60%
    21:00 +7°C° 0 mm 1 m/s 625 mmHg 60%
    22:00 +7°C° 0 mm 1 m/s 625 mmHg 60%
    23:00 +7°C° 0 mm 1 m/s 625 mmHg 60%

    25 Octombrie, Vineri

    Timp Temperatura Precipitaţii Vânt Presiune Umiditate
    00:00 +6°C° 0 mm 1 m/s 625 mmHg 59%
    01:00 +6°C° 0 mm 1 m/s 625 mmHg 58%
    02:00 +6°C° 0 mm 1 m/s 625 mmHg 57%
    03:00 +6°C° 0 mm 1 m/s 625 mmHg 56%
    04:00 +6°C° 0 mm 1 m/s 625 mmHg 54%
    05:00 +5°C° 0 mm 1 m/s 624 mmHg 53%
    06:00 +6°C° 0 mm 1 m/s 625 mmHg 51%
    07:00 +7°C° 0 mm 1 m/s 626 mmHg 50%
    08:00 +7°C° 0 mm 0 m/s 626 mmHg 48%
    09:00 +11°C° 0 mm 1 m/s 627 mmHg 43%
    10:00 +13°C° 0 mm 1 m/s 628 mmHg 38%
    11:00 +16°C° 0 mm 1 m/s 629 mmHg 33%
    12:00 +16°C° 0 mm 1 m/s 629 mmHg 32%
    13:00 +16°C° 0 mm 2 m/s 629 mmHg 32%
    14:00 +16°C° 0 mm 2 m/s 629 mmHg 32%
    15:00 +15°C° 0 mm 2 m/s 628 mmHg 38%
    16:00 +13°C° 0 mm 1 m/s 627 mmHg 45%
    17:00 +11°C° 0 mm 1 m/s 626 mmHg 52%
    18:00 +10°C° 0 mm 1 m/s 626 mmHg 54%
    19:00 +8°C° 0 mm 1 m/s 626 mmHg 57%
    20:00 +7°C° 0 mm 1 m/s 625 mmHg 60%
    21:00 +7°C° 0 mm 1 m/s 626 mmHg 59%
    22:00 +7°C° 0 mm 1 m/s 626 mmHg 58%
    23:00 +6°C° 0 mm 1 m/s 626 mmHg 57%

    26 Octombrie, Sâmbătă

    Timp Temperatura Precipitaţii Vânt Presiune Umiditate
    00:00 +6°C° 0 mm 1 m/s 626 mmHg 59%
    01:00 +6°C° 0 mm 1 m/s 626 mmHg 60%
    02:00 +6°C° 0 mm 1 m/s 626 mmHg 62%
    03:00 +5°C° 0 mm 1 m/s 626 mmHg 63%
    04:00 +5°C° 0 mm 1 m/s 626 mmHg 64%
    05:00 +5°C° 0 mm 1 m/s 626 mmHg 65%
    06:00 +6°C° 0 mm 1 m/s 626 mmHg 61%
    07:00 +7°C° 0 mm 1 m/s 627 mmHg 58%
    08:00 +8°C° 0 mm 1 m/s 627 mmHg 55%
    09:00 +11°C° 0 mm 1 m/s 629 mmHg 47%
    10:00 +13°C° 0 mm 1 m/s 630 mmHg 40%
    11:00 +15°C° 0 mm 1 m/s 631 mmHg 32%
    12:00 +16°C° 0 mm 1 m/s 631 mmHg 31%
    13:00 +16°C° 0 mm 2 m/s 631 mmHg 31%
    14:00 +16°C° 0 mm 2 m/s 631 mmHg 30%
    15:00 +14°C° 0 mm 1 m/s 630 mmHg 37%
    16:00 +13°C° 0 mm 1 m/s 629 mmHg 43%
    17:00 +11°C° 0 mm 1 m/s 628 mmHg 49%
    18:00 +10°C° 0 mm 1 m/s 628 mmHg 52%
    19:00 +8°C° 0 mm 1 m/s 627 mmHg 54%
    20:00 +7°C° 0 mm 1 m/s 627 mmHg 57%
    21:00 +7°C° 0 mm 1 m/s 627 mmHg 55%
    22:00 +7°C° 0 mm 1 m/s 627 mmHg 54%
    23:00 +6°C° 0 mm 1 m/s 627 mmHg 52%
    Arată mai mult